This demonstration page uses our WeatherBlox Daily Observations layout. Learn more.

Left ArrowRight Arrow

44.8408, -93.29828

Hourly Observations for March 24, 2015

Temp ( °F °C ) Dew Point ( °F °C ) Humidity (%) Winds ( mph kmh ) Pressure ( in mb ) Visibility ( mi km ) Precip ( " mm )
12:53 am 00:53 Partly Cloudy 31 -0.6 24 -4.4 76 76 SSE 9 15 30.25 1024 10 16 0.00 0.00
1:53 am 01:53 Mostly Clear 28 -2.2 23 -5 81 81 SE 7 11 30.24 1024 9 14 0.00 0.00
2:22 am 02:22 Mostly Cloudy 27 -3 23 -5 86 86 SE 6 9 30.27 1025 9 14 0.00 0.00
2:53 am 02:53 Cloudy 28 -2.2 24 -4.4 85 85 SE 7 11 30.24 1024 9 14 0.00 0.00
3:39 am 03:39 Partly Cloudy 29 -1.7 24 -4.4 82 82 SSE 6 9 30.24 1024 9 14 0.00 0.00
3:53 am 03:53 Partly Cloudy 28 -2.2 23 -5 81 81 SSE 7 11 30.22 1023 9 14 0.00 0.00
4:53 am 04:53 Partly Cloudy 25 -3.9 22 -5.6 88 88 SE 7 11 30.21 1023 7 11 0.00 0.00
5:53 am 05:53 Partly Cloudy with Mist and Fog 25 -3.9 22 -5.6 88 88 ESE 7 11 30.21 1023 6 10 0.00 0.00
6:43 am 06:43 Mostly Cloudy 26 -3.3 22 -5.6 84 84 SE 10 17 30.24 1024 8 13 0.00 0.00
6:53 am 06:53 Cloudy 26 -3.3 22 -5.6 84 84 SE 12 19 30.21 1023 8 13 0.00 0.00
7:00 am 07:00 Cloudy 27 -3 21 -6 80 80 SE 12 19 30.24 1024 8 13 0.00 0.00
7:53 am 07:53 Cloudy 26 -3.3 22 -5.6 84 84 SE 13 20 30.21 1023 9 14 0.00 0.00
8:53 am 08:53 Cloudy 27 -2.8 23 -5 85 85 SE 14 22 30.17 1022 9 14 0.00 0.00
9:21 am 09:21 Mostly Cloudy 28 -2.2 23 -5 81 81 ESE 15 24 30.15 1021 9 14 0.00 0.00
9:44 am 09:44 Mostly Cloudy 28 -2 23 -5 80 80 SE 12 19 30.18 1022 9 14 0.00 0.00
9:53 am 09:53 Mostly Cloudy 27 -2.8 23 -5 85 85 SE 18 30 30.17 1022 9 14 0.00 0.00
10:17 am 10:17 Cloudy 27 -2.8 23 -5 85 85 SE 16 26 30.21 1023 10 16 0.00 0.00
10:32 am 10:32 Cloudy 27 -3 23 -5 86 86 SE 17 28 30.21 1023 10 16 0.00 0.00
10:53 am 10:53 Cloudy 27 -2.8 23 -5 85 85 SE 14 22 30.19 1022 10 16 0.00 0.00
11:53 am 11:53 Cloudy 30 -1.1 24 -4.4 79 79 SSE 17 28 30.17 1022 10 16 0.00 0.00
12:12 pm 12:12 Cloudy 30 -1 25 -4 80 80 SSE 17 28 30.18 1022 8 13 0.00 0.00
12:53 pm 12:53 Cloudy 31 -0.6 25 -3.9 79 79 SSE 10 17 30.16 1021 10 16 0.00 0.00
1:53 pm 13:53 Mostly Cloudy 35 1.7 26 -3.3 70 70 S 14 22 30.12 1020 8 13 0.00 0.00
2:37 pm 14:37 Mostly Cloudy 36 2.2 27 -2.8 70 70 SE 10 17 30.09 1019 8 13 0.00 0.00
2:53 pm 14:53 Mostly Cloudy 37 2.8 27 -2.8 67 67 SE 13 20 30.09 1019 8 13 0.00 0.00
3:53 pm 15:53 Cloudy 38 3.3 26 -3.3 62 62 SSE 13 20 30.06 1018 9 14 0.00 0.00
4:53 pm 16:53 Cloudy 37 2.8 25 -3.9 62 62 SE 17 28 30.04 1017 9 14 0.00 0.00
5:53 pm 17:53 Cloudy 37 2.8 23 -5 57 57 SE 9 15 30.01 1016 9 14 0.00 0.00
6:53 pm 18:53 Cloudy 37 2.8 23 -5 57 57 SE 12 19 29.99 1016 9 14 0.00 0.00
7:53 pm 19:53 Cloudy 37 2.8 23 -5 57 57 SE 9 15 29.97 1015 10 16 0.00 0.00
8:28 pm 20:28 Cloudy with Light Snow 35 1.7 25 -3.9 67 67 SSE 12 19 30.00 1016 2 3 0.00 0.03
8:38 pm 20:38 Cloudy with Light Snow 34 1 27 -3 75 75 SSE 12 19 30.00 1016 2 2 0.00 0.00
8:46 pm 20:46 Cloudy with Light Snow 34 1 28 -2 81 81 SSE 14 22 30.00 1016 2 2 0.00 0.00
8:53 pm 20:53 Cloudy with Light Snow 32 0 29 -1.7 88 88 SSE 13 20 29.98 1015 1 2 0.01 0.25
9:34 pm 21:34 Cloudy with Light Snow 30 -1 30 -1 100 100 SE 7 11 30.00 1016 1 2 0.00 0.00
9:53 pm 21:53 Cloudy with Light Snow 31 -0.6 30 -1.1 96 96 SE 14 22 29.95 1014 2 2 0.04 1.02
10:07 pm 22:07 Cloudy with Light Snow 31 -0.6 30 -1.1 96 96 SE 10 17 29.97 1015 2 2 0.00 0.03
10:22 pm 22:22 Cloudy with Light Snow 32 0 30 -1 93 93 SE 13 20 29.97 1015 2 2 0.00 0.00
10:30 pm 22:30 Cloudy with Light Snow 31 -0.6 30 -1.1 96 96 SE 9 15 29.97 1015 2 2 0.01 0.25
10:53 pm 22:53 Cloudy with Light Snow 31 -0.6 30 -1.1 96 96 SSE 8 13 29.94 1014 2 2 0.02 0.51
11:49 pm 23:49 Cloudy with Light Snow 30 -1 30 -1 100 100 SE 5 7 29.97 1015 1 2 0.03 0.76
11:53 pm 23:53 Cloudy with Light Snow 31 -0.6 30 -1.1 96 96 SSE 3 6 29.93 1014 1 2 0.03 0.76

Powered by AerisWeather